FW6835 Weather Reports


time (UTC)temp
C
wind
direction
speed
KPH
gust
KPH
rain 1hr
cm
rain 24hr
cm
rain mn
cm
humidity
%
barometer
mb
20260508215032 6 94 3.2 6.4 0.00 0.03 0.03 98 1022.2
20260508214531 6 100 0.0 4.8 0.00 0.03 0.03 97 1022.1
20260508214031 6 89 1.6 6.4 0.00 0.03 0.03 97 1022.0
20260508213531 6 87 3.2 6.4 0.00 0.03 0.03 97 1022.2
20260508213031 6 65 0.0 4.8 0.00 0.03 0.03 97 1022.2
20260508212531 6 63 0.0 3.2 0.00 0.03 0.03 97 1022.1
20260508212033 6 53 0.0 6.4 0.00 0.03 0.03 97 1022.2
20260508211530 6 53 0.0 6.4 0.00 0.03 0.03 97 1022.2
20260508211030 6 90 1.6 4.8 0.00 0.03 0.03 97 1022.1
20260508210530 6 87 1.6 4.8 0.00 0.03 0.03 97 1022.1
20260508210031 6 112 0.0 4.8 0.00 0.03 0.03 97 1022.2
20260508205531 6 107 1.6 4.8 0.00 0.03 0.03 97 1022.2
20260508205030 6 112 0.0 0.0 0.00 0.03 0.03 97 1022.1
20260508204532 6 111 0.0 0.0 0.00 0.03 0.03 97 1022.1
20260508204029 6 112 0.0 4.8 0.00 0.03 0.03 97 1022.1
20260508203528 6 105 0.0 8.0 0.00 0.03 0.03 97 1022.1
20260508203028 6 100 1.6 8.0 0.00 0.03 0.03 97 1022.0
20260508202528 6 105 1.6 6.4 0.00 0.03 0.03 97 1022.0
20260508202029 6 107 0.0 12.9 0.00 0.03 0.03 97 1022.0
20260508201530 6 96 3.2 12.9 0.00 0.03 0.03 97 1021.9
20260508201029 6 168 1.6 8.0 0.00 0.03 0.03 97 1021.8
20260508200526 6 113 1.6 6.4 0.00 0.03 0.03 97 1021.7
20260508200027 6 89 3.2 6.4 0.00 0.03 0.03 97 1021.6
20260508195530 6 102 3.2 9.7 0.00 0.03 0.03 97 1021.6
20260508195025 6 91 3.2 11.3 0.00 0.03 0.03 97 1021.5
20260508194533 6 93 1.6 6.4 0.00 0.03 0.03 97 1021.6
20260508194024 6 95 1.6 4.8 0.00 0.03 0.03 97 1021.6
20260508193524 6 97 1.6 4.8 0.00 0.03 0.03 97 1021.5
20260508193024 6 84 1.6 6.4 0.00 0.03 0.03 97 1021.5
20260508192528 6 86 1.6 4.8 0.00 0.03 0.03 97 1021.4
20260508192024 6 60 1.6 6.4 0.00 0.03 0.03 97 1021.4
20260508191532 6 43 1.6 6.4 0.00 0.03 0.03 97 1021.3
20260508191023 6 76 1.6 4.8 0.00 0.03 0.03 97 1021.5
20260508190623 6 76 0.0 4.8 0.00 0.03 0.03 97 1021.4
20260508190024 6 116 0.0 1.6 0.00 0.03 0.03 96 1021.4
20260508185522 6 116 0.0 3.2 0.00 0.05 0.03 96 1021.4
20260508185022 6 98 0.0 4.8 0.00 0.05 0.03 96 1021.3
20260508184524 6 98 0.0 4.8 0.00 0.05 0.03 96 1021.3
20260508184022 6 96 0.0 3.2 0.00 0.05 0.03 96 1021.3
20260508183522 6 96 0.0 3.2 0.00 0.05 0.03 95 1021.2
20260508183028 6 80 0.0 1.6 0.00 0.05 0.03 95 1021.2
20260508182521 6 80 0.0 1.6 0.00 0.05 0.03 95 1021.1
20260508182020 7 79 0.0 1.6 0.00 0.05 0.03 95 1021.1
20260508181520 7 77 0.0 3.2 0.00 0.05 0.03 95 1021.1
20260508181021 7 77 0.0 3.2 0.00 0.05 0.03 95 1021.1
20260508180520 7 90 0.0 0.0 0.00 0.05 0.03 95 1021.0
20260508180022 7 78 0.0 3.2 0.00 0.05 0.03 94 1021.0
20260508175520 7 81 0.0 4.8 0.00 0.05 0.03 94 1021.0
20260508175020 7 61 1.6 4.8 0.00 0.05 0.03 95 1021.1
20260508174520 7 49 0.0 4.8 0.00 0.05 0.03 95 1020.9
20260508174022 7 101 1.6 4.8 0.00 0.05 0.03 95 1021.1
20260508173519 7 83 0.0 3.2 0.00 0.05 0.03 95 1021.0
20260508173020 7 64 0.0 6.4 0.00 0.05 0.03 94 1020.9
20260508172518 7 70 1.6 6.4 0.00 0.05 0.03 94 1020.9
20260508172018 7 94 1.6 6.4 0.00 0.05 0.03 94 1020.9
20260508171518 8 108 1.6 4.8 0.00 0.05 0.03 94 1020.9
20260508171017 8 67 0.0 4.8 0.00 0.05 0.03 94 1021.0
20260508170517 8 65 0.0 6.4 0.00 0.05 0.03 94 1020.9
20260508170019 8 76 0.0 6.4 0.00 0.05 0.03 94 1020.9
20260508165619 8 39 0.0 3.2 0.00 0.08 0.03 94 1020.8
20260508165023 8 100 0.0 6.4 0.00 0.08 0.03 94 1020.8
20260508164517 8 102 1.6 6.4 0.00 0.08 0.03 93 1020.7
20260508164017 8 102 1.6 6.4 0.00 0.08 0.03 93 1020.9
20260508163516 8 74 1.6 6.4 0.00 0.08 0.03 93 1020.8
20260508163027 8 103 0.0 6.4 0.00 0.08 0.03 93 1020.8
20260508162519 8 85 0.0 6.4 0.00 0.08 0.03 93 1020.9
20260508162016 8 103 1.6 4.8 0.00 0.08 0.03 93 1020.9
20260508161515 8 93 1.6 4.8 0.00 0.08 0.03 93 1021.1
20260508161016 8 97 1.6 6.4 0.00 0.08 0.03 92 1021.0
20260508160515 8 98 3.2 6.4 0.00 0.08 0.03 92 1020.9
20260508160021 8 78 0.0 6.4 0.00 0.08 0.03 92 1021.0
20260508155518 8 76 1.6 4.8 0.00 0.08 0.03 92 1021.1
20260508155014 8 58 1.6 6.4 0.00 0.08 0.03 94 1020.9
20260508154516 8 69 1.6 6.4 0.00 0.08 0.03 95 1021.0
20260508154018 7 81 1.6 6.4 0.00 0.08 0.03 95 1021.0
20260508153515 7 89 0.0 6.4 0.00 0.08 0.03 95 1021.0
20260508153011 7 82 1.6 4.8 0.00 0.08 0.03 95 1020.9
20260508152513 7 63 0.0 6.4 0.00 0.08 0.03 95 1021.0
20260508152014 7 49 0.0 4.8 0.00 0.08 0.03 95 1021.0
20260508151512 7 59 0.0 4.8 0.00 0.08 0.03 95 1021.2
20260508151013 7 133 0.0 3.2 0.00 0.08 0.03 96 1021.3
20260508150510 7 134 0.0 3.2 0.00 0.08 0.03 96 1021.2
20260508150032 7 138 1.6 3.2 0.00 0.08 0.03 96 1021.3
20260508145509 7 82 0.0 4.8 0.00 0.15 0.03 96 1021.3
20260508145010 7 81 1.6 4.8 0.00 0.15 0.03 96 1021.3
20260508144509 7 78 0.0 4.8 0.00 0.15 0.03 96 1021.3
20260508144010 7 78 0.0 3.2 0.00 0.15 0.03 96 1021.3
20260508143509 7 78 0.0 4.8 0.03 0.15 0.03 96 1021.3
20260508143011 7 124 1.6 4.8 0.03 0.15 0.03 96 1021.4
20260508142508 7 132 0.0 4.8 0.03 0.15 0.03 96 1021.3
20260508142007 7 81 1.6 6.4 0.03 0.15 0.03 96 1021.3
20260508141508 7 92 1.6 6.4 0.03 0.15 0.03 96 1021.2
20260508141006 7 306 1.6 4.8 0.03 0.15 0.03 97 1021.1
20260508140509 7 85 0.0 6.4 0.03 0.15 0.03 96 1021.2
20260508140011 7 307 1.6 6.4 0.03 0.15 0.03 96 1021.3
20260508135505 7 196 0.0 4.8 0.03 0.15 0.03 96 1021.2
20260508135006 7 84 0.0 8.0 0.03 0.15 0.03 96 1021.2
20260508134505 7 62 1.6 8.0 0.03 0.15 0.03 96 1021.2
20260508134008 7 126 1.6 6.4 0.00 0.13 0.00 95 1021.2
20260508133507 7 93 3.2 6.4 0.00 0.13 0.00 96 1021.2
20260508133008 7 94 0.0 6.4 0.00 0.13 0.00 96 1021.1
20260508132504 7 95 1.6 6.4 0.00 0.13 0.00 97 1021.1
20260508132003 7 68 0.0 6.4 0.00 0.13 0.00 98 1021.2
20260508131503 7 57 0.0 0.0 0.00 0.13 0.00 98 1021.2
20260508131005 7 57 0.0 4.8 0.00 0.13 0.00 97 1021.1
20260508130503 7 38 0.0 4.8 0.00 0.13 0.00 98 1021.2
20260508130003 7 82 0.0 1.6 0.00 0.13 0.00 97 1021.2
20260508125502 7 82 0.0 6.4 0.00 0.23 0.00 97 1021.2
20260508125003 7 74 3.2 6.4 0.00 0.23 0.00 97 1021.1
20260508124502 7 81 0.0 6.4 0.00 0.23 0.00 97 1021.1
20260508124002 7 75 0.0 4.8 0.00 0.23 0.00 97 1021.2
20260508123502 7 74 0.0 4.8 0.00 0.23 0.00 96 1021.3
20260508123001 7 72 0.0 6.4 0.00 0.23 0.00 96 1021.3
20260508122600 7 72 0.0 4.8 0.00 0.23 0.00 96 1021.2
20260508122059 7 66 1.6 4.8 0.00 0.23 0.00 97 1021.2
20260508121559 7 127 0.0 4.8 0.00 0.23 0.00 97 1021.1
20260508121058 7 103 0.0 4.8 0.00 0.23 0.00 97 1021.1
20260508120558 7 104 0.0 8.0 0.00 0.23 0.00 97 1021.1
20260508120101 7 58 1.6 8.0 0.00 0.23 0.00 97 1021.0
20260508115601 7 75 0.0 4.8 0.00 0.23 0.00 97 1020.9
20260508115057 7 94 1.6 6.4 0.00 0.23 0.00 97 1021.1
20260508114557 7 57 3.2 6.4 0.00 0.23 0.00 97 1021.0
20260508114057 7 105 1.6 4.8 0.00 0.23 0.00 96 1021.1
20260508113557 7 59 0.0 6.4 0.00 0.23 0.00 97 1021.0
20260508113058 7 77 0.0 4.8 0.00 0.23 0.00 97 1021.0
20260508112556 7 70 0.0 4.8 0.00 0.23 0.00 97 1021.0
20260508112057 7 81 0.0 1.6 0.00 0.23 0.00 97 1021.1
20260508111603 7 81 0.0 6.4 0.00 0.23 0.00 97 1021.1
20260508111056 7 80 1.6 8.0 0.00 0.23 0.00 96 1021.1
20260508110556 7 65 3.2 8.0 0.00 0.23 0.00 97 1021.1
20260508105555 7 265 1.6 3.2 0.00 0.23 0.00 97 1021.0
20260508105055 7 229 0.0 3.2 0.00 0.23 0.00 97 1021.1
20260508104555 7 75 0.0 6.4 0.00 0.23 0.00 97 1021.0
20260508104054 7 75 0.0 6.4 0.00 0.23 0.00 97 1021.0
20260508103553 6 70 0.0 6.4 0.00 0.23 0.00 97 1021.0
20260508103054 7 71 0.0 6.4 0.00 0.23 0.00 97 1021.0
20260508102551 7 56 0.0 6.4 0.00 0.23 0.00 98 1021.0
20260508102051 7 65 1.6 6.4 0.00 0.23 0.00 98 1020.9
20260508101553 7 106 1.6 4.8 0.00 0.23 0.00 98 1020.9
20260508101051 6 89 0.0 6.4 0.00 0.23 0.00 98 1020.9
20260508100549 6 72 1.6 6.4 0.00 0.23 0.00 98 1020.9
20260508100049 6 76 1.6 6.4 0.00 0.23 0.00 98 1021.0
20260508095551 6 70 1.6 6.4 0.00 0.25 0.00 98 1021.0
20260508095049 6 32 1.6 4.8 0.00 0.25 0.00 98 1020.8
20260508094550 6 75 0.0 4.8 0.00 0.25 0.00 98 1020.8
20260508094049 6 67 0.0 4.8 0.00 0.25 0.00 98 1020.9
20260508093551 6 103 0.0 4.8 0.00 0.25 0.00 98 1021.0
20260508093050 6 17 0.0 4.8 0.00 0.25 0.00 98 1020.8
20260508092548 6 204 1.6 6.4 0.00 0.25 0.00 98 1021.0
20260508092046 6 115 1.6 9.7 0.00 0.25 0.00 98 1020.8
20260508091559 6 93 0.0 9.7 0.00 0.25 0.00 99 1020.8
20260508091045 6 216 0.0 3.2 0.00 0.25 0.00 99 1020.8
20260508090545 6 85 0.0 1.6 0.00 0.25 0.00 99 1020.7
20260508090045 6 84 0.0 6.4 0.00 0.25 0.00 99 1020.7
20260508085544 6 74 1.6 6.4 0.00 0.25 0.00 99 1020.7
20260508085046 6 139 1.6 4.8 0.00 0.25 0.00 99 1020.6
20260508084550 6 86 0.0 6.4 0.00 0.25 0.00 99 1020.6
20260508084043 6 82 1.6 6.4 0.00 0.25 0.00 99 1020.5
20260508083542 6 86 0.0 4.8 0.00 0.25 0.00 99 1020.6
20260508083052 6 95 1.6 9.7 0.00 0.25 0.00 99 1020.4
20260508082541 6 63 1.6 9.7 0.00 0.25 0.00 99 1020.4
20260508082041 6 85 1.6 9.7 0.00 0.25 0.00 99 1020.4
20260508081546 6 90 1.6 6.4 0.00 0.25 0.00 99 1020.4
20260508081041 6 67 3.2 6.4 0.00 0.25 0.00 100 1020.5
20260508080541 6 85 0.0 6.4 0.00 0.25 0.00 100 1020.4
20260508080057 6 97 3.2 6.4 0.00 0.25 0.00 100 1020.3
20260508075539 6 99 1.6 6.4 0.00 0.36 0.00 100 1020.3
20260508075038 6 78 1.6 6.4 0.00 0.36 0.00 100 1020.2
20260508074638 6 86 1.6 9.7 0.00 0.36 0.00 100 1020.1
20260508074037 6 73 1.6 12.9 0.00 0.36 0.00 100 1020.1
20260508073537 6 76 3.2 14.5 0.00 0.36 0.00 100 1020.0
20260508073043 6 69 4.8 14.5 0.00 0.36 0.00 100 1019.9
20260508072534 6 100 3.2 8.0 0.00 0.36 0.00 100 1020.0
20260508072034 6 82 1.6 9.7 0.00 0.36 0.00 100 1019.9
20260508071534 6 74 0.0 6.4 0.00 0.36 0.00 100 1019.8
20260508071032 6 69 1.6 4.8 0.00 0.36 0.00 100 1019.8
20260508070531 6 61 0.0 4.8 0.00 0.36 0.00 100 1019.8
20260508070033 6 61 1.6 8.0 0.00 0.36 0.00 100 1019.6
20260508065534 6 31 0.0 9.7 0.00 0.41 0.00 100 1019.7
20260508065029 6 89 0.0 9.7 0.00 0.41 0.00 100 1019.6
20260508064540 5 127 0.0 9.7 0.00 0.41 0.00 100 1019.5
20260508064029 5 127 3.2 9.7 0.00 0.41 0.00 100 1019.5
20260508063528 5 140 1.6 9.7 0.00 0.41 0.00 100 1019.4
20260508063028 5 86 1.6 8.0 0.00 0.41 0.00 99 1019.4
20260508062526 5 74 3.2 8.0 0.00 0.41 0.00 100 1019.4
20260508062026 5 69 1.6 6.4 0.00 0.41 0.00 100 1019.4
20260508061527 5 76 1.6 6.4 0.00 0.41 0.00 99 1019.4
20260508061025 5 76 1.6 6.4 0.00 0.41 0.00 100 1019.3
20260508060524 5 97 1.6 6.4 0.00 0.41 0.00 99 1019.2
20260508060022 5 88 3.2 6.4 0.00 0.41 0.00 99 1019.1
20260508055524 5 158 0.0 6.4 0.00 0.43 0.00 99 1019.1
20260508055022 5 90 1.6 4.8 0.00 0.43 0.00 99 1019.1
20260508054537 5 277 0.0 9.7 0.00 0.43 0.00 99 1019.0
20260508054021 5 99 0.0 9.7 0.00 0.43 0.00 99 1018.9
20260508053521 5 61 1.6 8.0 0.00 0.43 0.00 99 1018.8
20260508053021 5 66 1.6 8.0 0.00 0.43 0.00 99 1018.9
20260508052520 5 121 1.6 6.4 0.00 0.43 0.00 99 1018.9
20260508052019 5 94 1.6 6.4 0.00 0.43 0.00 99 1019.0
20260508051520 5 102 1.6 6.4 0.00 0.43 0.00 99 1018.8
20260508051020 5 275 0.0 6.4 0.00 0.43 0.00 99 1019.0
20260508050518 5 93 1.6 6.4 0.00 0.43 0.00 99 1018.8
20260508050018 5 93 1.6 8.0 0.00 0.43 0.00 99 1018.7
20260508045518 5 64 1.6 8.0 0.00 0.43 0.00 99 1018.6
20260508045017 5 90 3.2 9.7 0.00 0.43 0.00 100 1018.6
20260508044517 5 82 1.6 4.8 0.00 0.43 0.00 100 1018.6
20260508044017 5 222 0.0 4.8 0.00 0.43 0.00 99 1018.5
20260508043515 5 225 0.0 3.2 0.00 0.43 0.00 99 1018.5
20260508043014 5 240 0.0 4.8 0.00 0.43 0.00 99 1018.5
20260508042513 5 227 0.0 4.8 0.00 0.43 0.00 99 1018.6
20260508042011 5 137 0.0 3.2 0.00 0.43 0.00 99 1018.5
20260508041511 5 86 0.0 0.0 0.00 0.43 0.00 99 1018.6
20260508041011 5 86 0.0 4.8 0.00 0.43 0.00 99 1018.6
20260508040511 5 86 0.0 4.8 0.00 0.43 0.00 99 1018.6
20260508040032 5 76 0.0 3.2 0.00 0.43 0.00 99 1018.7
20260508035508 5 75 0.0 6.4 0.00 0.56 0.00 99 1018.6
20260508035012 5 75 1.6 6.4 0.00 0.56 0.00 99 1018.6
20260508034507 5 72 0.0 4.8 0.00 0.56 0.00 99 1018.6
20260508034006 5 72 0.0 4.8 0.00 0.56 0.00 99 1018.5
20260508033505 5 97 1.6 4.8 0.00 0.56 0.00 99 1018.5
20260508033006 5 103 0.0 0.0 0.00 0.56 0.00 99 1018.4
20260508032504 5 96 0.0 3.2 0.00 0.56 0.00 99 1018.3
20260508032005 5 42 0.0 3.2 0.00 0.56 0.00 99 1018.3
20260508031512 5 43 0.0 3.2 0.00 0.56 0.00 99 1018.3
20260508031002 5 292 0.0 6.4 0.00 0.56 0.00 99 1018.2
20260508030504 5 42 0.0 6.4 0.00 0.56 0.00 99 1018.2
20260508030003 5 119 0.0 6.4 0.00 0.56 0.00 99 1018.2
20260508025503 5 75 0.0 6.4 0.00 0.69 0.00 99 1018.1
20260508025002 5 81 3.2 6.4 0.00 0.69 0.00 99 1018.2
20260508024501 5 108 0.0 3.2 0.00 0.69 0.00 99 1018.1
20260508024002 5 111 0.0 3.2 0.00 0.69 0.00 99 1018.1
20260508023601 5 110 0.0 3.2 0.00 0.69 0.00 99 1018.1
20260508023101 5 40 0.0 1.6 0.00 0.69 0.00 99 1018.2
20260508022559 5 40 0.0 3.2 0.00 0.69 0.00 99 1018.1
20260508022058 5 36 0.0 3.2 0.00 0.69 0.00 99 1018.2
20260508021558 5 344 0.0 3.2 0.00 0.69 0.00 99 1018.3
20260508021058 5 339 0.0 3.2 0.00 0.69 0.00 99 1018.2
20260508020558 5 338 0.0 1.6 0.00 0.69 0.00 99 1018.3
20260508020059 5 337 0.0 3.2 0.00 0.69 0.00 99 1018.2
20260508015557 5 336 0.0 6.4 0.00 0.71 0.00 99 1018.2
20260508015056 5 329 0.0 6.4 0.00 0.71 0.00 99 1018.1
20260508014556 5 153 0.0 3.2 0.00 0.71 0.00 99 1018.2
20260508014056 5 153 0.0 4.8 0.00 0.71 0.00 99 1018.1
20260508013557 5 71 0.0 6.4 0.00 0.71 0.00 99 1018.1
20260508013055 5 65 0.0 6.4 0.00 0.71 0.00 99 1018.0
20260508012554 5 98 1.6 6.4 0.00 0.71 0.00 99 1018.0
20260508012055 5 59 1.6 6.4 0.00 0.71 0.00 99 1018.0
20260508011553 5 85 0.0 9.7 0.00 0.71 0.00 99 1018.1
20260508011052 5 78 3.2 9.7 0.00 0.71 0.00 99 1017.9
20260508010552 5 124 0.0 3.2 0.00 0.71 0.00 99 1017.8
20260508010052 5 115 0.0 9.7 0.00 0.71 0.00 99 1017.8
20260508005551 5 88 1.6 9.7 0.00 0.89 0.00 99 1017.7
20260508005050 5 116 1.6 8.0 0.00 0.89 0.00 99 1017.7
20260508004553 5 327 0.0 8.0 0.00 0.89 0.00 99 1017.7
20260508004050 5 75 0.0 6.4 0.00 0.89 0.00 99 1017.7
20260508003554 5 103 0.0 4.8 0.00 0.89 0.00 99 1017.7
20260508003051 5 103 0.0 4.8 0.00 0.89 0.00 99 1017.7
20260508002547 5 103 0.0 14.5 0.00 0.89 0.00 99 1017.7
20260508002048 5 72 1.6 14.5 0.00 0.89 0.00 99 1017.8
20260508001547 5 102 1.6 4.8 0.00 0.89 0.00 99 1017.8
20260508001046 5 72 0.0 4.8 0.00 0.89 0.00 99 1017.8
20260508000546 5 71 1.6 4.8 0.00 0.89 0.00 99 1017.7
20260508000050 5 98 0.0 4.8 0.00 0.89 0.00 99 1017.8
20260507235550 5 80 0.0 4.8 0.00 1.17 0.00 99 1017.9
20260507235046 5 62 1.6 8.0 0.00 1.17 0.00 99 1017.8
20260507234553 5 61 0.0 8.0 0.00 1.17 0.00 99 1017.9
20260507234045 5 104 0.0 4.8 0.00 1.17 0.00 99 1017.8
20260507233545 5 69 0.0 8.0 0.00 1.17 0.00 99 1017.8
20260507233108 5 41 0.0 9.7 0.00 1.17 0.00 99 1017.9
20260507232543 5 289 3.2 9.7 0.00 1.17 0.00 99 1017.7
20260507232047 5 90 0.0 6.4 0.00 1.17 0.00 99 1017.7
20260507231542 5 70 0.0 4.8 0.00 1.17 0.00 99 1017.8
20260507231042 5 81 0.0 8.0 0.00 1.17 0.00 99 1017.8
20260507230541 5 63 3.2 8.0 0.00 1.17 0.00 99 1017.8
20260507230046 5 63 3.2 8.0 0.00 1.17 0.00 99 1017.7
20260507225540 6 98 1.6 8.0 0.00 1.24 0.00 99 1017.9
20260507225041 6 140 1.6 4.8 0.00 1.24 0.00 99 1017.8
20260507224540 6 224 0.0 3.2 0.00 1.24 0.00 99 1017.7
20260507224143 6 225 0.0 3.2 0.00 1.24 0.00 99 1017.8
20260507223540 6 219 0.0 11.3 0.00 1.24 0.00 99 1017.7
20260507223054 6 80 3.2 11.3 0.00 1.24 0.00 99 1017.8
20260507222540 6 65 1.6 9.7 0.00 1.24 0.00 99 1017.7
20260507222038 6 78 1.6 9.7 0.00 1.24 0.00 99 1017.7
20260507221542 6 68 1.6 6.4 0.00 1.24 0.00 99 1017.8
20260507221037 6 76 1.6 6.4 0.00 1.24 0.00 99 1017.6
20260507220537 6 88 0.0 6.4 0.00 1.24 0.00 99 1017.7
20260507220038 6 79 1.6 8.0 0.00 1.24 0.00 99 1017.7
20260507215534 6 76 1.6 8.0 0.00 1.24 1.24 99 1017.6